YMA7489 KTUL-KIAH

Flight info

Callsign YMA7489
Flight time 1h 5m
Altitude 32000
Route KTUL OKM MIDEE CVE KIAH
Aircraft B738/M-VGDW/C

Departure

Time 2026-04-23 09:39
Airport Tulsa International Airport (KTUL)

Arrival

Time 2026-04-23 10:45
Airport George Bush Intercontinental Airport (KIAH)
Time Latitude Longitude Altitude Speed Heading
2026-04-23 09:05 36.19054 -95.88693 661 ft 0 kts 321°
2026-04-23 09:29 36.19053 -95.88691 652 ft 1 kts 321°
2026-04-23 09:29 36.19046 -95.88684 654 ft 2 kts 321°
2026-04-23 09:29 36.19033 -95.88671 654 ft 2 kts 328°
2026-04-23 09:30 36.19018 -95.88663 652 ft 2 kts 349°
2026-04-23 09:30 36.19002 -95.88664 652 ft 2 kts 27°
2026-04-23 09:30 36.19000 -95.88665 650 ft 0 kts 36°
2026-04-23 09:30 36.19053 -95.88556 650 ft 20 kts 42°
2026-04-23 09:31 36.19192 -95.88599 655 ft 26 kts 306°
2026-04-23 09:31 36.19318 -95.88781 656 ft 31 kts 315°
2026-04-23 09:31 36.19464 -95.88957 659 ft 30 kts 325°
2026-04-23 09:31 36.19587 -95.89078 659 ft 23 kts 297°
2026-04-23 09:32 36.19670 -95.89209 660 ft 15 kts 345°
2026-04-23 09:32 36.19694 -95.89193 660 ft 12 kts 46°
2026-04-23 09:32 36.19713 -95.89053 658 ft 20 kts 89°
2026-04-23 09:32 36.19715 -95.88872 657 ft 22 kts 89°
2026-04-23 09:33 36.19717 -95.88695 657 ft 19 kts 89°
2026-04-23 09:33 36.19776 -95.88575 656 ft 18 kts 18°
2026-04-23 09:33 36.19893 -95.88526 655 ft 17 kts 19°
2026-04-23 09:33 36.20012 -95.88476 649 ft 19 kts 19°
2026-04-23 09:34 36.20144 -95.88420 646 ft 20 kts 19°
2026-04-23 09:34 36.20275 -95.88373 644 ft 20 kts
2026-04-23 09:34 36.20423 -95.88368 640 ft 22 kts
2026-04-23 09:34 36.20575 -95.88354 642 ft 22 kts
2026-04-23 09:35 36.20723 -95.88347 642 ft 21 kts
2026-04-23 09:35 36.20866 -95.88339 642 ft 20 kts
2026-04-23 09:35 36.21005 -95.88331 643 ft 20 kts
2026-04-23 09:35 36.21147 -95.88321 641 ft 21 kts
2026-04-23 09:36 36.21271 -95.88308 639 ft 11 kts
2026-04-23 09:36 36.21353 -95.88301 637 ft 12 kts
2026-04-23 09:36 36.21383 -95.88237 636 ft 0 kts 95°
2026-04-23 09:38 36.21360 -95.88169 639 ft 15 kts 143°
2026-04-23 09:38 36.21032 -95.88167 639 ft 97 kts 185°
2026-04-23 09:39 36.20045 -95.88181 656 ft 180 kts 180°
2026-04-23 09:39 36.18642 -95.88262 887 ft 211 kts 179°
2026-04-23 09:39 36.17043 -95.88246 927 ft 266 kts 181°
2026-04-23 09:39 36.15098 -95.88472 1466 ft 293 kts 186°
2026-04-23 09:40 36.12899 -95.88845 964 ft 337 kts 188°
2026-04-23 09:40 36.10862 -95.89238 2485 ft 261 kts 182°
2026-04-23 09:40 36.09219 -95.88967 3040 ft 230 kts 173°
2026-04-23 09:40 36.07590 -95.88828 3618 ft 236 kts 180°
2026-04-23 09:41 36.05958 -95.88740 4209 ft 234 kts 181°
2026-04-23 09:41 36.04316 -95.88643 4797 ft 239 kts 182°
2026-04-23 09:41 36.02635 -95.88572 5342 ft 245 kts 182°
2026-04-23 09:41 36.00902 -95.88481 5894 ft 250 kts 181°
2026-04-23 09:42 35.99147 -95.88359 6468 ft 257 kts 181°
2026-04-23 09:42 35.97342 -95.88229 7024 ft 261 kts 181°
2026-04-23 09:42 35.95522 -95.88102 7596 ft 265 kts 181°
2026-04-23 09:42 35.93683 -95.87984 8174 ft 269 kts 181°
2026-04-23 09:43 35.91789 -95.87872 8764 ft 274 kts 181°
2026-04-23 09:43 35.91191 -95.87839 8953 ft 276 kts 181°
2026-04-23 09:43 35.89280 -95.87738 9549 ft 281 kts 181°
2026-04-23 09:43 35.87306 -95.87635 10126 ft 287 kts 181°
2026-04-23 09:44 35.85266 -95.87537 10696 ft 300 kts 181°
2026-04-23 09:44 35.83127 -95.87442 11254 ft 314 kts 181°
2026-04-23 09:44 35.80895 -95.87311 11797 ft 327 kts 180°
2026-04-23 09:44 35.78576 -95.87169 12350 ft 338 kts 180°
2026-04-23 09:45 35.76188 -95.87032 12910 ft 350 kts 180°
2026-04-23 09:45 35.73746 -95.86897 13469 ft 360 kts 180°
2026-04-23 09:45 35.71224 -95.86754 14006 ft 364 kts 179°
2026-04-23 09:45 35.68716 -95.87014 14423 ft 362 kts 199°
2026-04-23 09:46 35.66382 -95.88138 14910 ft 360 kts 205°
2026-04-23 09:46 35.64065 -95.89354 15447 ft 363 kts 205°
2026-04-23 09:46 35.61719 -95.90575 15967 ft 367 kts 205°
2026-04-23 09:46 35.59370 -95.91848 16474 ft 369 kts 206°
2026-04-23 09:47 35.57017 -95.93138 16987 ft 371 kts 206°
2026-04-23 09:47 35.54650 -95.94437 17474 ft 374 kts 206°
2026-04-23 09:47 35.52278 -95.95704 17970 ft 377 kts 205°
2026-04-23 09:47 35.49856 -95.96976 18431 ft 380 kts 205°
2026-04-23 09:48 35.47412 -95.98261 18862 ft 383 kts 205°
2026-04-23 09:48 35.44948 -95.99557 19282 ft 386 kts 205°
2026-04-23 09:48 35.42472 -96.00859 19702 ft 388 kts 205°
2026-04-23 09:48 35.39977 -96.02171 20132 ft 391 kts 205°
2026-04-23 09:49 35.37498 -96.03468 20563 ft 394 kts 205°
2026-04-23 09:49 35.34966 -96.04793 20997 ft 398 kts 205°
2026-04-23 09:49 35.32408 -96.06134 21423 ft 401 kts 205°
2026-04-23 09:49 35.29834 -96.07483 21855 ft 404 kts 205°
2026-04-23 09:50 35.27235 -96.08840 22296 ft 407 kts 205°
2026-04-23 09:50 35.24633 -96.10244 22736 ft 410 kts 206°
2026-04-23 09:50 35.22010 -96.11681 23129 ft 414 kts 206°
2026-04-23 09:50 35.19292 -96.12908 23485 ft 419 kts 199°
2026-04-23 09:51 35.16477 -96.13854 23838 ft 420 kts 197°
2026-04-23 09:51 35.13650 -96.14776 24210 ft 422 kts 197°
2026-04-23 09:51 35.10836 -96.15696 24573 ft 425 kts 197°
2026-04-23 09:51 35.07964 -96.16634 24934 ft 428 kts 197°
2026-04-23 09:52 35.05084 -96.17593 25295 ft 429 kts 198°
2026-04-23 09:52 35.03140 -96.18265 25532 ft 431 kts 198°
2026-04-23 09:52 35.00249 -96.19269 25896 ft 433 kts 198°
2026-04-23 09:52 34.97379 -96.20262 26245 ft 436 kts 198°
2026-04-23 09:53 34.94455 -96.21267 26597 ft 438 kts 198°
2026-04-23 09:53 34.91509 -96.22283 26947 ft 440 kts 198°
2026-04-23 09:53 34.88551 -96.23305 27298 ft 442 kts 198°
2026-04-23 09:53 34.85579 -96.24328 27639 ft 445 kts 198°
2026-04-23 09:54 34.82585 -96.25353 27980 ft 447 kts 198°
2026-04-23 09:54 34.79584 -96.26375 28321 ft 450 kts 198°
2026-04-23 09:54 34.76552 -96.27405 28665 ft 452 kts 198°
2026-04-23 09:54 34.73550 -96.28421 28991 ft 455 kts 198°
2026-04-23 09:55 34.70483 -96.29452 29321 ft 458 kts 198°
2026-04-23 09:55 34.67401 -96.30489 29658 ft 460 kts 199°
2026-04-23 09:55 34.64315 -96.31570 29978 ft 462 kts 199°
2026-04-23 09:55 34.61213 -96.32672 30278 ft 464 kts 199°
2026-04-23 09:56 34.58097 -96.33774 30600 ft 466 kts 199°
2026-04-23 09:56 34.54970 -96.34878 30844 ft 470 kts 199°
2026-04-23 09:56 34.51837 -96.35969 30877 ft 476 kts 199°
2026-04-23 09:57 34.45433 -96.38091 30881 ft 475 kts 198°
2026-04-23 09:57 34.39069 -96.40184 30886 ft 472 kts 199°
2026-04-23 09:58 34.32737 -96.42381 30885 ft 473 kts 199°
2026-04-23 09:58 34.26433 -96.44588 30896 ft 474 kts 199°
2026-04-23 09:59 34.20073 -96.46731 30910 ft 475 kts 198°
2026-04-23 09:59 34.13685 -96.48813 30923 ft 475 kts 198°
2026-04-23 10:00 34.07313 -96.50987 30936 ft 476 kts 199°
2026-04-23 10:00 34.00953 -96.53200 31201 ft 476 kts 196°
2026-04-23 10:00 33.97785 -96.54294 31012 ft 468 kts 196°
2026-04-23 10:01 33.94663 -96.55339 31002 ft 464 kts 195°
2026-04-23 10:01 33.88445 -96.57379 31001 ft 467 kts 195°
2026-04-23 10:02 33.82165 -96.59447 31000 ft 468 kts 195°
2026-04-23 10:02 33.75875 -96.61512 31000 ft 467 kts 195°
2026-04-23 10:03 33.69620 -96.63637 31000 ft 467 kts 197°
2026-04-23 10:03 33.63414 -96.65803 31000 ft 467 kts 196°
2026-04-23 10:04 33.57137 -96.67872 31001 ft 467 kts 195°
2026-04-23 10:04 33.50867 -96.69936 30999 ft 467 kts 195°
2026-04-23 10:05 33.44606 -96.71992 31000 ft 467 kts 195°
2026-04-23 10:05 33.38376 -96.74042 31000 ft 467 kts 195°
2026-04-23 10:06 33.32108 -96.76106 30999 ft 467 kts 195°
2026-04-23 10:06 33.27277 -96.77691 31000 ft 467 kts 195°
2026-04-23 10:07 33.21833 -96.79485 31000 ft 466 kts 195°
2026-04-23 10:07 33.15658 -96.81515 30999 ft 466 kts 195°
2026-04-23 10:08 33.14618 -96.81859 31000 ft 466 kts 195°
2026-04-23 10:09 33.06086 -96.84664 30999 ft 467 kts 195°
2026-04-23 10:09 32.99821 -96.86728 31000 ft 467 kts 195°
2026-04-23 10:10 32.93562 -96.88819 31000 ft 467 kts 197°
2026-04-23 10:10 32.87206 -96.90219 30953 ft 468 kts 174°
2026-04-23 10:11 32.80917 -96.88406 31024 ft 467 kts 164°
2026-04-23 10:11 32.74634 -96.86341 31005 ft 468 kts 166°
2026-04-23 10:12 32.68317 -96.84426 31000 ft 468 kts 166°
2026-04-23 10:12 32.62032 -96.82629 30999 ft 468 kts 167°
2026-04-23 10:13 32.55688 -96.80817 31000 ft 468 kts 166°
2026-04-23 10:13 32.49360 -96.79000 31000 ft 468 kts 166°
2026-04-23 10:14 32.43072 -96.77197 31001 ft 468 kts 167°
2026-04-23 10:14 32.36741 -96.75391 31000 ft 468 kts 167°
2026-04-23 10:15 32.30397 -96.73578 30999 ft 468 kts 166°
2026-04-23 10:15 32.24065 -96.71766 30999 ft 468 kts 166°
2026-04-23 10:16 32.17770 -96.69963 31000 ft 467 kts 166°
2026-04-23 10:16 32.11444 -96.68148 31001 ft 468 kts 166°
2026-04-23 10:17 32.05116 -96.66329 31000 ft 468 kts 166°
2026-04-23 10:17 31.98774 -96.64507 31000 ft 468 kts 166°
2026-04-23 10:18 31.92475 -96.62753 30999 ft 468 kts 167°
2026-04-23 10:18 31.86117 -96.61059 31000 ft 467 kts 167°
2026-04-23 10:19 31.79821 -96.59265 31000 ft 467 kts 166°
2026-04-23 10:19 31.73498 -96.57457 31000 ft 468 kts 166°
2026-04-23 10:20 31.67167 -96.55653 31000 ft 468 kts 166°
2026-04-23 10:20 31.60828 -96.53846 31000 ft 468 kts 167°
2026-04-23 10:21 31.54512 -96.52155 31000 ft 468 kts 167°
2026-04-23 10:21 31.48379 -96.49665 30991 ft 468 kts 152°
2026-04-23 10:22 31.42700 -96.45921 31007 ft 468 kts 151°
2026-04-23 10:22 31.36977 -96.42265 31000 ft 468 kts 152°
2026-04-23 10:23 31.31212 -96.38715 30999 ft 468 kts 152°
2026-04-23 10:23 31.25581 -96.35268 30997 ft 450 kts 153°
2026-04-23 10:24 31.20033 -96.31868 31000 ft 448 kts 152°
2026-04-23 10:24 31.14564 -96.28498 31000 ft 447 kts 152°
2026-04-23 10:25 31.09034 -96.25160 31000 ft 447 kts 153°
2026-04-23 10:25 31.06267 -96.23528 30536 ft 451 kts 153°
2026-04-23 10:25 31.03428 -96.21842 29115 ft 458 kts 153°
2026-04-23 10:26 31.00663 -96.20153 28237 ft 438 kts 152°
2026-04-23 10:26 30.98033 -96.18498 27493 ft 423 kts 151°
2026-04-23 10:26 30.95496 -96.16863 26382 ft 415 kts 151°
2026-04-23 10:26 30.92976 -96.15245 25450 ft 409 kts 151°
2026-04-23 10:27 30.90516 -96.13667 24741 ft 399 kts 151°
2026-04-23 10:27 30.88092 -96.12112 23794 ft 398 kts 152°
2026-04-23 10:27 30.85692 -96.10525 22829 ft 399 kts 150°
2026-04-23 10:27 30.83314 -96.08940 22132 ft 388 kts 151°
2026-04-23 10:28 30.80957 -96.07423 21029 ft 387 kts 151°
2026-04-23 10:28 30.78648 -96.05932 20271 ft 380 kts 151°
2026-04-23 10:28 30.76362 -96.04462 19303 ft 376 kts 151°
2026-04-23 10:28 30.74084 -96.02990 18499 ft 371 kts 151°
2026-04-23 10:29 30.71841 -96.01574 17552 ft 365 kts 152°
2026-04-23 10:29 30.69608 -96.00185 16796 ft 360 kts 151°
2026-04-23 10:29 30.67433 -95.98785 15799 ft 357 kts 151°
2026-04-23 10:29 30.65284 -95.97398 14921 ft 353 kts 151°
2026-04-23 10:30 30.63179 -95.96040 14122 ft 347 kts 151°
2026-04-23 10:30 30.61078 -95.94684 13389 ft 341 kts 151°
2026-04-23 10:30 30.58995 -95.93339 12599 ft 338 kts 150°
2026-04-23 10:30 30.56940 -95.92012 11781 ft 335 kts 151°
2026-04-23 10:31 30.54930 -95.90715 11066 ft 323 kts 151°
2026-04-23 10:31 30.53008 -95.89516 10746 ft 299 kts 152°
2026-04-23 10:31 30.51205 -95.88399 10480 ft 290 kts 152°
2026-04-23 10:31 30.49415 -95.87359 10140 ft 287 kts 161°
2026-04-23 10:32 30.47445 -95.86974 9839 ft 288 kts 175°
2026-04-23 10:32 30.45452 -95.86747 9590 ft 289 kts 174°
2026-04-23 10:32 30.43453 -95.86490 9282 ft 288 kts 174°
2026-04-23 10:32 30.41492 -95.86252 8972 ft 285 kts 175°
2026-04-23 10:33 30.39521 -95.86045 8670 ft 284 kts 175°
2026-04-23 10:33 30.37554 -95.85834 8365 ft 283 kts 175°
2026-04-23 10:33 30.35594 -95.85624 8091 ft 280 kts 175°
2026-04-23 10:33 30.33749 -95.85427 8044 ft 254 kts 175°
2026-04-23 10:34 30.32039 -95.85240 7784 ft 241 kts 175°
2026-04-23 10:34 30.30379 -95.85061 7476 ft 238 kts 175°
2026-04-23 10:34 30.28746 -95.84883 7179 ft 234 kts 175°
2026-04-23 10:34 30.27133 -95.84708 6891 ft 233 kts 175°
2026-04-23 10:35 30.25538 -95.84521 6598 ft 233 kts 174°
2026-04-23 10:35 30.23926 -95.84309 6291 ft 232 kts 174°
2026-04-23 10:35 30.22331 -95.84109 6024 ft 228 kts 172°
2026-04-23 10:35 30.20882 -95.83492 5912 ft 223 kts 142°
2026-04-23 10:36 30.19962 -95.82092 5937 ft 222 kts 110°
2026-04-23 10:36 30.19599 -95.80333 6081 ft 229 kts 104°
2026-04-23 10:36 30.19177 -95.78512 6071 ft 236 kts 105°
2026-04-23 10:36 30.18738 -95.76694 6007 ft 232 kts 106°
2026-04-23 10:37 30.18297 -95.74920 6005 ft 229 kts 106°
2026-04-23 10:37 30.17865 -95.73174 6003 ft 227 kts 106°
2026-04-23 10:37 30.17434 -95.71426 5998 ft 225 kts 106°
2026-04-23 10:37 30.17002 -95.69679 6004 ft 226 kts 106°
2026-04-23 10:38 30.16571 -95.67926 6002 ft 227 kts 106°
2026-04-23 10:38 30.16137 -95.66171 5998 ft 226 kts 106°
2026-04-23 10:38 30.15708 -95.64425 6001 ft 225 kts 106°
2026-04-23 10:38 30.15282 -95.62698 6002 ft 227 kts 106°
2026-04-23 10:39 30.14852 -95.60945 5949 ft 227 kts 106°
2026-04-23 10:39 30.14412 -95.59160 5710 ft 234 kts 106°
2026-04-23 10:39 30.13969 -95.57354 5416 ft 231 kts 106°
2026-04-23 10:39 30.13536 -95.55593 5163 ft 225 kts 106°
2026-04-23 10:40 30.13115 -95.53875 4900 ft 219 kts 106°
2026-04-23 10:40 30.12704 -95.52195 4651 ft 215 kts 105°
2026-04-23 10:40 30.12326 -95.50545 4413 ft 215 kts 105°
2026-04-23 10:40 30.11943 -95.48874 4152 ft 212 kts 105°
2026-04-23 10:41 30.11571 -95.47249 3905 ft 206 kts 105°
2026-04-23 10:41 30.11188 -95.45648 3661 ft 207 kts 106°
2026-04-23 10:41 30.10731 -95.44087 3386 ft 202 kts 117°
2026-04-23 10:41 30.10196 -95.43227 3179 ft 197 kts 137°
2026-04-23 10:42 30.08679 -95.42225 2894 ft 184 kts 154°
2026-04-23 10:42 30.07560 -95.41542 2637 ft 182 kts 153°
2026-04-23 10:42 30.06439 -95.40863 2360 ft 181 kts 153°
2026-04-23 10:42 30.05682 -95.40405 2157 ft 182 kts 153°
2026-04-23 10:43 30.04579 -95.39736 1871 ft 180 kts 153°
2026-04-23 10:43 30.03501 -95.39058 1571 ft 174 kts 152°
2026-04-23 10:43 30.02447 -95.38392 1279 ft 172 kts 152°
2026-04-23 10:43 30.01387 -95.37750 952 ft 172 kts 153°
2026-04-23 10:44 29.99989 -95.36884 522 ft 171 kts 152°
2026-04-23 10:44 29.99293 -95.36446 323 ft 166 kts 152°
2026-04-23 10:44 29.98278 -95.35848 102 ft 153 kts 152°
2026-04-23 10:44 29.97509 -95.35368 99 ft 80 kts 152°
2026-04-23 10:45 29.97221 -95.35182 97 ft 38 kts 152°
2026-04-23 10:45 29.97004 -95.35053 97 ft 34 kts 145°
2026-04-23 10:45 29.96901 -95.34922 97 ft 22 kts 121°
2026-04-23 10:45 29.96785 -95.34724 96 ft 35 kts 137°
2026-04-23 10:46 29.96679 -95.34609 96 ft 18 kts 108°
2026-04-23 10:46 29.96731 -95.34440 96 ft 18 kts 59°
2026-04-23 10:46 29.96798 -95.34316 96 ft 23 kts 57°
2026-04-23 10:46 29.96875 -95.34277 97 ft 28 kts 349°
2026-04-23 10:47 29.97119 -95.34424 99 ft 43 kts 332°
2026-04-23 10:47 29.97386 -95.34586 99 ft 43 kts 332°
2026-04-23 10:47 29.97656 -95.34748 99 ft 41 kts 332°
2026-04-23 10:47 29.97916 -95.34907 99 ft 43 kts 332°
2026-04-23 10:48 29.98166 -95.35064 101 ft 42 kts 331°
2026-04-23 10:48 29.98332 -95.35168 101 ft 25 kts 332°
2026-04-23 10:48 29.98465 -95.35229 101 ft 7 kts 12°
2026-04-23 10:48 29.98535 -95.35205 101 ft 11 kts 39°
2026-04-23 10:49 29.98545 -95.35190 101 ft 0 kts 55°